| time (UTC) | temp F | wind direction | speed MPH | gust MPH | rain 1hr in | rain 24hr in | rain mn in | humidity % | barometer mb |
| 20260504233503 | 68 | 201 | 2.0 | 7.0 | 0.00 | 0.00 | 0.00 | 49 | 1002.2 |
| 20260504233003 | 68 | 206 | 2.0 | 7.0 | 0.00 | 0.00 | 0.00 | 50 | 1002.2 |
| 20260504232503 | 68 | 194 | 2.0 | 4.0 | 0.00 | 0.00 | 0.00 | 47 | 1002.2 |
| 20260504232003 | 68 | 197 | 1.0 | 4.0 | 0.00 | 0.00 | 0.00 | 48 | 1002.3 |
| 20260504231503 | 69 | 215 | 1.0 | 3.0 | 0.00 | 0.00 | 0.00 | 48 | 1002.2 |
| 20260504231003 | 69 | 200 | 1.0 | 5.0 | 0.00 | 0.00 | 0.00 | 47 | 1002.4 |
| 20260504230503 | 69 | 202 | 1.0 | 5.0 | 0.00 | 0.00 | 0.00 | 48 | 1002.4 |
| 20260504230003 | 69 | 201 | 1.0 | 6.0 | 0.00 | 0.00 | 0.00 | 47 | 1002.4 |
| 20260504225503 | 69 | 199 | 2.0 | 6.0 | 0.00 | 0.00 | 0.00 | 45 | 1002.5 |
| 20260504225004 | 70 | 205 | 2.0 | 5.0 | 0.00 | 0.00 | 0.00 | 43 | 1002.4 |
| 20260504224503 | 70 | 212 | 2.0 | 5.0 | 0.00 | 0.00 | 0.00 | 43 | 1002.3 |
| 20260504224003 | 70 | 222 | 2.0 | 9.0 | 0.00 | 0.00 | 0.00 | 41 | 1002.4 |
| 20260504223503 | 70 | 223 | 2.0 | 9.0 | 0.00 | 0.00 | 0.00 | 40 | 1002.4 |
| 20260504223003 | 70 | 228 | 3.0 | 7.0 | 0.00 | 0.00 | 0.00 | 40 | 1002.4 |
| 20260504222503 | 70 | 222 | 3.0 | 7.0 | 0.00 | 0.00 | 0.00 | 40 | 1002.4 |
| 20260504222003 | 70 | 220 | 3.0 | 7.0 | 0.00 | 0.00 | 0.00 | 40 | 1002.4 |
| 20260504221503 | 71 | 232 | 3.0 | 6.0 | 0.00 | 0.00 | 0.00 | 37 | 1002.4 |
| 20260504221003 | 71 | 232 | 2.0 | 6.0 | 0.00 | 0.00 | 0.00 | 39 | 1002.2 |
| 20260504220503 | 71 | 233 | 2.0 | 5.0 | 0.00 | 0.00 | 0.00 | 38 | 1002.3 |
| 20260504220003 | 71 | 239 | 3.0 | 7.0 | 0.00 | 0.00 | 0.00 | 38 | 1002.3 |
| 20260504215503 | 71 | 240 | 3.0 | 8.0 | 0.00 | 0.00 | 0.00 | 36 | 1002.3 |
| 20260504215003 | 71 | 231 | 4.0 | 9.0 | 0.00 | 0.00 | 0.00 | 39 | 1002.4 |
| 20260504214503 | 71 | 232 | 3.0 | 9.0 | 0.00 | 0.00 | 0.00 | 36 | 1002.4 |
| 20260504214007 | 71 | 236 | 3.0 | 7.0 | 0.00 | 0.00 | 0.00 | 38 | 1002.3 |
| 20260504213503 | 71 | 235 | 3.0 | 8.0 | 0.00 | 0.00 | 0.00 | 39 | 1002.2 |
| 20260504213003 | 71 | 240 | 3.0 | 8.0 | 0.00 | 0.00 | 0.00 | 37 | 1002.2 |
| 20260504212503 | 71 | 235 | 3.0 | 8.0 | 0.00 | 0.00 | 0.00 | 42 | 1002.3 |
| 20260504212003 | 71 | 240 | 4.0 | 9.0 | 0.00 | 0.00 | 0.00 | 41 | 1002.3 |
| 20260504211503 | 71 | 243 | 4.0 | 9.0 | 0.00 | 0.00 | 0.00 | 39 | 1002.3 |
| 20260504211003 | 72 | 236 | 3.0 | 6.0 | 0.00 | 0.00 | 0.00 | 40 | 1002.4 |
| 20260504210503 | 72 | 235 | 4.0 | 9.0 | 0.00 | 0.00 | 0.00 | 40 | 1002.4 |
| 20260504210217 | 72 | 231 | 4.0 | 9.0 | 0.00 | 0.00 | 0.00 | 41 | 1002.5 |
| 20260504205503 | 72 | 228 | 3.0 | 7.0 | 0.00 | 0.00 | 0.00 | 42 | 1002.5 |
| 20260504205003 | 73 | 219 | 3.0 | 10.0 | 0.00 | 0.00 | 0.00 | 42 | 1002.5 |
| 20260504204503 | 72 | 225 | 3.0 | 10.0 | 0.00 | 0.00 | 0.00 | 42 | 1002.6 |
| 20260504204003 | 72 | 216 | 3.0 | 10.0 | 0.00 | 0.00 | 0.00 | 42 | 1002.7 |
| 20260504203503 | 72 | 214 | 4.0 | 10.0 | 0.00 | 0.00 | 0.00 | 41 | 1002.6 |
| 20260504203003 | 73 | 219 | 3.0 | 10.0 | 0.00 | 0.00 | 0.00 | 40 | 1002.7 |
| 20260504202718 | 73 | 214 | 3.0 | 10.0 | 0.00 | 0.00 | 0.00 | 40 | 1002.6 |
| 20260504202004 | 74 | 212 | 3.0 | 5.0 | 0.00 | 0.00 | 0.00 | 42 | 1002.8 |
| 20260504201718 | 74 | 217 | 2.0 | 6.0 | 0.00 | 0.00 | 0.00 | 41 | 1002.7 |
| 20260504201003 | 73 | 233 | 3.0 | 8.0 | 0.00 | 0.00 | 0.00 | 44 | 1002.8 |
| 20260504200503 | 73 | 232 | 3.0 | 8.0 | 0.00 | 0.00 | 0.00 | 43 | 1002.9 |
| 20260504200219 | 73 | 236 | 3.0 | 8.0 | 0.00 | 0.00 | 0.00 | 41 | 1002.8 |
| 20260504195718 | 72 | 221 | 4.0 | 10.0 | 0.00 | 0.00 | 0.00 | 43 | 1002.9 |
| 20260504195003 | 72 | 220 | 4.0 | 10.0 | 0.00 | 0.00 | 0.00 | 42 | 1003.1 |
| 20260504194503 | 72 | 225 | 4.0 | 11.0 | 0.00 | 0.00 | 0.00 | 46 | 1003.2 |
| 20260504194003 | 72 | 222 | 4.0 | 11.0 | 0.00 | 0.00 | 0.00 | 42 | 1003.3 |
| 20260504193503 | 72 | 218 | 3.0 | 10.0 | 0.00 | 0.00 | 0.00 | 50 | 1003.5 |
| 20260504193003 | 72 | 220 | 4.0 | 10.0 | 0.00 | 0.00 | 0.00 | 45 | 1003.4 |
| 20260504192503 | 72 | 227 | 4.0 | 8.0 | 0.00 | 0.00 | 0.00 | 47 | 1003.6 |
| 20260504192003 | 72 | 229 | 4.0 | 8.0 | 0.00 | 0.00 | 0.00 | 45 | 1003.8 |
| 20260504191503 | 72 | 233 | 3.0 | 8.0 | 0.00 | 0.00 | 0.00 | 44 | 1003.8 |
| 20260504191004 | 72 | 237 | 3.0 | 7.0 | 0.00 | 0.00 | 0.00 | 45 | 1003.8 |
| 20260504190504 | 71 | 231 | 3.0 | 9.0 | 0.00 | 0.00 | 0.00 | 47 | 1003.8 |
| 20260504190004 | 72 | 220 | 3.0 | 9.0 | 0.00 | 0.00 | 0.00 | 46 | 1003.9 |
| 20260504185503 | 71 | 221 | 3.0 | 9.0 | 0.00 | 0.00 | 0.00 | 47 | 1004.0 |
| 20260504185216 | 71 | 227 | 4.0 | 10.0 | 0.00 | 0.00 | 0.00 | 49 | 1004.0 |
| 20260504184503 | 71 | 229 | 4.0 | 22.0 | 0.00 | 0.00 | 0.00 | 46 | 1004.1 |
| 20260504184003 | 71 | 228 | 3.0 | 7.0 | 0.00 | 0.00 | 0.00 | 49 | 1004.1 |
| 20260504183717 | 71 | 229 | 3.0 | 8.0 | 0.00 | 0.00 | 0.00 | 45 | 1004.1 |
| 20260504183003 | 70 | 223 | 4.0 | 12.0 | 0.00 | 0.00 | 0.00 | 52 | 1004.2 |
| 20260504182503 | 70 | 216 | 4.0 | 12.0 | 0.00 | 0.00 | 0.00 | 49 | 1004.3 |
| 20260504182003 | 70 | 218 | 4.0 | 9.0 | 0.00 | 0.00 | 0.00 | 50 | 1004.2 |
| 20260504181503 | 70 | 218 | 4.0 | 10.0 | 0.00 | 0.00 | 0.00 | 49 | 1004.3 |
| 20260504181004 | 69 | 233 | 4.0 | 10.0 | 0.00 | 0.00 | 0.00 | 49 | 1004.4 |
| 20260504180507 | 69 | 232 | 5.0 | 11.0 | 0.00 | 0.00 | 0.00 | 50 | 1004.6 |
| 20260504180004 | 69 | 219 | 4.0 | 11.0 | 0.00 | 0.00 | 0.00 | 52 | 1004.8 |
| 20260504175717 | 69 | 215 | 4.0 | 13.0 | 0.00 | 0.00 | 0.00 | 48 | 1004.9 |
| 20260504175003 | 69 | 207 | 4.0 | 14.0 | 0.00 | 0.00 | 0.00 | 48 | 1004.8 |
| 20260504174505 | 68 | 210 | 4.0 | 14.0 | 0.00 | 0.00 | 0.00 | 55 | 1004.9 |
| 20260504174004 | 68 | 205 | 4.0 | 15.0 | 0.00 | 0.00 | 0.00 | 49 | 1005.0 |
| 20260504173503 | 68 | 207 | 4.0 | 15.0 | 0.00 | 0.00 | 0.00 | 50 | 1005.0 |
| 20260504173218 | 68 | 210 | 4.0 | 13.0 | 0.00 | 0.00 | 0.00 | 51 | 1005.0 |
| 20260504172503 | 67 | 225 | 5.0 | 13.0 | 0.00 | 0.00 | 0.00 | 50 | 1005.0 |
| 20260504172003 | 67 | 209 | 5.0 | 18.0 | 0.00 | 0.00 | 0.00 | 50 | 1005.0 |
| 20260504171504 | 67 | 215 | 5.0 | 18.0 | 0.00 | 0.00 | 0.00 | 54 | 1005.0 |
| 20260504171003 | 66 | 244 | 5.0 | 12.0 | 0.00 | 0.00 | 0.00 | 52 | 1005.1 |
| 20260504170503 | 66 | 244 | 5.0 | 12.0 | 0.00 | 0.00 | 0.00 | 52 | 1005.0 |
| 20260504151004 | 62 | 243 | 6.0 | 12.0 | 0.00 | 0.00 | 0.00 | 54 | 1006.0 |
| 20260504150503 | 62 | 236 | 5.0 | 12.0 | 0.00 | 0.00 | 0.00 | 55 | 1006.1 |
| 20260504141003 | 60 | 239 | 4.0 | 9.0 | 0.00 | 0.00 | 0.00 | 57 | 1006.1 |
| 20260504140503 | 60 | 240 | 4.0 | 9.0 | 0.00 | 0.00 | 0.00 | 56 | 1005.9 |
| 20260504130503 | 58 | 223 | 3.0 | 10.0 | 0.00 | 0.00 | 0.00 | 57 | 1006.3 |
| 20260504110503 | 52 | 212 | 2.0 | 7.0 | 0.00 | 0.00 | 0.00 | 63 | 1006.5 |
| 20260504100503 | 51 | 222 | 2.0 | 4.0 | 0.00 | 0.00 | 0.00 | 64 | 1006.2 |
| 20260504082003 | 47 | 211 | 0.0 | 3.0 | 0.00 | 0.00 | 0.00 | 73 | 1007.0 |
| 20260504081505 | 47 | 245 | 1.0 | 3.0 | 0.00 | 0.00 | 0.00 | 75 | 1007.0 |
| 20260504081218 | 47 | 244 | 1.0 | 3.0 | 0.00 | 0.00 | 0.00 | 74 | 1007.1 |
| 20260504080503 | 47 | 214 | 1.0 | 3.0 | 0.00 | 0.00 | 0.00 | 75 | 1007.1 |
| 20260504050718 | 51 | 221 | 4.0 | 7.0 | 0.00 | 0.00 | 0.00 | 67 | 1008.4 |
| 20260504050217 | 51 | 222 | 3.0 | 7.0 | 0.00 | 0.00 | 0.00 | 65 | 1008.5 |
| 20260504045504 | 51 | 232 | 3.0 | 8.0 | 0.00 | 0.00 | 0.00 | 66 | 1008.6 |
| 20260504045003 | 51 | 236 | 3.0 | 8.0 | 0.00 | 0.00 | 0.00 | 65 | 1008.6 |
| 20260504044504 | 51 | 240 | 3.0 | 7.0 | 0.00 | 0.00 | 0.00 | 64 | 1008.6 |
| 20260504044003 | 51 | 240 | 4.0 | 6.0 | 0.00 | 0.00 | 0.00 | 64 | 1008.6 |
| 20260504043503 | 51 | 240 | 4.0 | 7.0 | 0.00 | 0.00 | 0.00 | 64 | 1008.6 |
| 20260504043003 | 51 | 240 | 4.0 | 7.0 | 0.00 | 0.00 | 0.00 | 64 | 1008.6 |
| 20260504042503 | 51 | 243 | 4.0 | 8.0 | 0.00 | 0.00 | 0.00 | 64 | 1008.6 |
| 20260504042003 | 51 | 237 | 3.0 | 8.0 | 0.00 | 0.00 | 0.00 | 64 | 1008.7 |
| 20260504041504 | 51 | 218 | 2.0 | 7.0 | 0.00 | 0.00 | 0.00 | 64 | 1008.7 |
| 20260504041217 | 51 | 216 | 2.0 | 6.0 | 0.00 | 0.00 | 0.00 | 63 | 1008.7 |
| 20260504040506 | 51 | 220 | 2.0 | 6.0 | 0.00 | 0.00 | 0.00 | 62 | 1008.7 |
| 20260504040004 | 51 | 229 | 2.0 | 5.0 | 0.00 | 0.00 | 0.00 | 62 | 1008.6 |
| 20260504035503 | 52 | 229 | 2.0 | 5.0 | 0.00 | 0.00 | 0.00 | 61 | 1008.5 |
| 20260504035003 | 52 | 222 | 2.0 | 5.0 | 0.00 | 0.00 | 0.00 | 61 | 1008.5 |
| 20260504034503 | 52 | 220 | 2.0 | 4.0 | 0.00 | 0.00 | 0.00 | 60 | 1008.3 |
| 20260504034221 | 52 | 219 | 2.0 | 8.0 | 0.00 | 0.00 | 0.00 | 60 | 1008.4 |
| 20260504033503 | 53 | 215 | 2.0 | 8.0 | 0.00 | 0.00 | 0.00 | 59 | 1008.4 |
| 20260504033003 | 53 | 224 | 2.0 | 4.0 | 0.00 | 0.00 | 0.00 | 59 | 1008.4 |
| 20260504032504 | 53 | 230 | 2.0 | 5.0 | 0.00 | 0.00 | 0.00 | 59 | 1008.5 |
| 20260504032003 | 53 | 228 | 3.0 | 5.0 | 0.00 | 0.00 | 0.00 | 58 | 1008.5 |
| 20260504031504 | 53 | 229 | 3.0 | 5.0 | 0.00 | 0.00 | 0.00 | 58 | 1008.5 |
| 20260504031003 | 53 | 228 | 3.0 | 5.0 | 0.00 | 0.00 | 0.00 | 58 | 1008.5 |
| 20260504030503 | 53 | 224 | 2.0 | 4.0 | 0.00 | 0.00 | 0.00 | 59 | 1008.6 |
| 20260504030003 | 53 | 225 | 2.0 | 7.0 | 0.00 | 0.00 | 0.00 | 58 | 1008.5 |
| 20260504025718 | 53 | 231 | 3.0 | 7.0 | 0.00 | 0.00 | 0.00 | 57 | 1008.5 |
| 20260504025003 | 53 | 241 | 3.0 | 5.0 | 0.00 | 0.00 | 0.00 | 57 | 1008.6 |
| 20260504024503 | 53 | 237 | 3.0 | 7.0 | 0.00 | 0.00 | 0.00 | 59 | 1008.5 |
| 20260504024216 | 53 | 235 | 3.0 | 7.0 | 0.00 | 0.00 | 0.00 | 59 | 1008.6 |
| 20260504023503 | 52 | 228 | 3.0 | 6.0 | 0.00 | 0.00 | 0.00 | 60 | 1008.6 |
| 20260504023003 | 52 | 223 | 2.0 | 6.0 | 0.00 | 0.00 | 0.00 | 60 | 1008.6 |
| 20260504022503 | 52 | 224 | 3.0 | 7.0 | 0.00 | 0.00 | 0.00 | 59 | 1008.6 |
| 20260504022003 | 52 | 228 | 3.0 | 7.0 | 0.00 | 0.00 | 0.00 | 60 | 1008.7 |
| 20260504021503 | 53 | 230 | 3.0 | 5.0 | 0.00 | 0.00 | 0.00 | 60 | 1008.6 |
| 20260504021003 | 53 | 232 | 3.0 | 7.0 | 0.00 | 0.00 | 0.00 | 58 | 1008.6 |
| 20260504020503 | 53 | 236 | 3.0 | 7.0 | 0.00 | 0.00 | 0.00 | 58 | 1008.7 |
| 20260504020006 | 53 | 235 | 4.0 | 8.0 | 0.00 | 0.00 | 0.00 | 58 | 1008.7 |
| 20260504015717 | 53 | 229 | 3.0 | 9.0 | 0.00 | 0.00 | 0.00 | 58 | 1008.7 |
| 20260504015003 | 54 | 217 | 3.0 | 9.0 | 0.00 | 0.00 | 0.00 | 57 | 1008.7 |
| 20260504014503 | 54 | 222 | 3.0 | 6.0 | 0.00 | 0.00 | 0.00 | 55 | 1008.7 |
| 20260504014218 | 54 | 229 | 3.0 | 7.0 | 0.00 | 0.00 | 0.00 | 55 | 1008.6 |
| 20260504013503 | 54 | 244 | 4.0 | 7.0 | 0.00 | 0.00 | 0.00 | 55 | 1008.7 |
| 20260504013218 | 54 | 244 | 4.0 | 7.0 | 0.00 | 0.00 | 0.00 | 55 | 1008.5 |
| 20260504012505 | 54 | 239 | 3.0 | 7.0 | 0.00 | 0.00 | 0.00 | 55 | 1008.5 |
| 20260504012003 | 53 | 237 | 3.0 | 7.0 | 0.00 | 0.00 | 0.00 | 57 | 1008.5 |
| 20260504011503 | 53 | 238 | 3.0 | 7.0 | 0.00 | 0.00 | 0.00 | 55 | 1008.7 |
| 20260504011218 | 53 | 238 | 3.0 | 7.0 | 0.00 | 0.00 | 0.00 | 57 | 1008.6 |
| 20260504010717 | 53 | 244 | 3.0 | 7.0 | 0.00 | 0.00 | 0.00 | 55 | 1008.6 |
| 20260504010004 | 53 | 242 | 3.0 | 7.0 | 0.00 | 0.00 | 0.00 | 56 | 1008.6 |
| 20260504005717 | 53 | 238 | 3.0 | 7.0 | 0.00 | 0.00 | 0.00 | 57 | 1008.6 |
| 20260504005004 | 53 | 241 | 4.0 | 7.0 | 0.00 | 0.00 | 0.00 | 57 | 1008.6 |
| 20260504004504 | 53 | 237 | 3.0 | 7.0 | 0.00 | 0.00 | 0.00 | 57 | 1008.6 |
| 20260504004003 | 53 | 239 | 3.0 | 7.0 | 0.00 | 0.00 | 0.00 | 59 | 1008.8 |
| 20260504003506 | 53 | 241 | 3.0 | 7.0 | 0.00 | 0.00 | 0.00 | 58 | 1008.6 |
| 20260504003003 | 53 | 239 | 4.0 | 8.0 | 0.00 | 0.00 | 0.00 | 59 | 1008.7 |
| 20260504002503 | 53 | 240 | 3.0 | 8.0 | 0.00 | 0.00 | 0.00 | 58 | 1008.7 |
| 20260504002003 | 53 | 236 | 3.0 | 9.0 | 0.00 | 0.00 | 0.00 | 60 | 1008.7 |
| 20260504001503 | 53 | 226 | 3.0 | 9.0 | 0.00 | 0.00 | 0.00 | 60 | 1008.7 |
| 20260504001003 | 52 | 229 | 2.0 | 5.0 | 0.00 | 0.00 | 0.00 | 63 | 1008.8 |
| 20260504000503 | 52 | 240 | 2.0 | 4.0 | 0.00 | 0.00 | 0.00 | 63 | 1008.9 |
| 20260504000003 | 52 | 242 | 1.0 | 3.0 | 0.00 | 0.00 | 0.00 | 66 | 1009.0 |
| 20260503235503 | 52 | 248 | 1.0 | 3.0 | 0.00 | 0.00 | 0.00 | 67 | 1008.9 |
| 20260503235004 | 52 | 245 | 2.0 | 3.0 | 0.00 | 0.00 | 0.00 | 69 | 1009.0 |
| 20260503234718 | 52 | 239 | 2.0 | 3.0 | 0.00 | 0.00 | 0.00 | 68 | 1009.0 |
| 20260503234003 | 51 | 215 | 2.0 | 7.0 | 0.00 | 0.00 | 0.00 | 70 | 1009.0 |